Flag for Germany Weather past 2 weeks in Erkelenz, North Rhine-Westphalia, Germany

Now
61 °F

Fog.


Feels Like: 61 °F
Forecast: 62 / 77 °F
Wind: 2 mph from North

Location: Monchengladbach Airport

Current Time: Jul 26, 2014 at 9:23:54 AM

Latest Report: Jul 26, 2014 at 8:50 AM


Visibility: 0 mi

Pressure: 29.95 "Hg

Humidity: 100%

Dew point: 61 °F

Location of ErkelenzLocation

Historic Weather in Erkelenz — Graph

°F

Erkelenz temperature yesterday

Maximum temperature yesterday: 72 °F (at 3:50 PM)
Minimum temperature yesterday: 63 °F (at 7:50 AM)
Average temperature yesterday: 68 °F

Past Weeks' High & Low Weather Summary

 TemperatureHumidityPressure
High91 °F (Jul 19, 4:50 PM)100% (Jul 11, 7:50 AM)30.18 "Hg (Jul 11, 7:50 AM)
Low59 °F (Jul 14, 7:50 AM)29% (Jul 19, 12:50 PM)29.71 "Hg (Jul 13, 6:20 PM)
Average73 °F73%29.97 "Hg
* Reported Jul 11 7:50 AM — Jul 26 7:50 AM, Erkelenz, Weather by CustomWeather, © 2014

Note: Actual official high and low records may vary slightly from our data, if they occured in-between our weather recording intervals... More about our weather records

Advertising

Erkelenz weather history for previous 24 hours

 ConditionsComfort  
Time TempWeatherWind HumidityBarometerVisibility
7:50 AM
Jul 26
61 °FFog.2 mph100%29.92 "Hg0 mi
8:20 PM
Jul 25
70 °FPassing clouds.6 mph73%29.92 "HgN/A
7:50 PM70 °FPassing clouds.7 mph73%29.92 "HgN/A
7:20 PM70 °FPassing clouds.8 mph73%29.92 "HgN/A
6:50 PM70 °FPassing clouds.5 mph73%29.92 "HgN/A
6:20 PM72 °FPassing clouds.6 mph69%29.92 "HgN/A
5:50 PM72 °FPassing clouds.8 mph69%29.92 "HgN/A
5:20 PM70 °FPassing clouds.9 mph73%29.92 "HgN/A
4:50 PM70 °FPassing clouds.9 mph73%29.92 "HgN/A
4:20 PM70 °FPassing clouds.10 mph73%29.92 "HgN/A
3:50 PM72 °FPassing clouds.9 mph69%29.92 "HgN/A
3:20 PM70 °FPassing clouds.10 mph73%29.92 "HgN/A
2:20 PM68 °FPassing clouds.10 mph78%29.95 "HgN/A
1:50 PM68 °FPassing clouds.8 mph73%29.95 "HgN/A
1:20 PM68 °FBroken clouds.8 mph78%29.95 "HgN/A
12:50 PM68 °FPartly sunny.8 mph78%29.95 "HgN/A
12:20 PM68 °FScattered showers. Partly sunny.8 mph78%29.98 "HgN/A
11:50 AM66 °FBroken clouds.6 mph78%29.98 "HgN/A
11:20 AM66 °FPartly sunny.7 mph78%29.98 "HgN/A
10:50 AM66 °FPartly sunny.6 mph78%29.98 "HgN/A
10:20 AM66 °FPartly sunny.8 mph83%29.98 "HgN/A
9:50 AM66 °FPartly sunny.7 mph78%29.98 "HgN/A
9:20 AM64 °FPassing clouds.7 mph83%29.98 "HgN/A
Weather by CustomWeather, © 2014

See weather overviewHow to use our weather pages